Stündliche Wetter Abidjan

Heute, 17 Juni, Donnerstag

Zeit Temperatur Niederschläge Wind Luftdruck Luftfeuchtigkeit
00:00 +27°C° 0 mm 3 m/S 757 mmHg 85%
01:00 +27°C° 0 mm 3 m/S 757 mmHg 85%
02:00 +26°C° 0 mm 3 m/S 756 mmHg 86%
03:00 +26°C° 0 mm 3 m/S 756 mmHg 86%
04:00 +26°C° 0 mm 3 m/S 756 mmHg 87%
05:00 +26°C° 0 mm 3 m/S 756 mmHg 88%
06:00 +26°C° 0 mm 3 m/S 756 mmHg 87%
07:00 +27°C° 0 mm 3 m/S 757 mmHg 79%
08:00 +29°C° 0 mm 3 m/S 757 mmHg 72%
09:00 +30°C° 0 mm 3 m/S 758 mmHg 64%
10:00 +31°C° 0 mm 3 m/S 758 mmHg 61%
11:00 +33°C° 0 mm 3 m/S 758 mmHg 57%
12:00 +34°C° 0 mm 4 m/S 757 mmHg 53%
13:00 +33°C° 0 mm 4 m/S 757 mmHg 55%
14:00 +33°C° 0 mm 4 m/S 757 mmHg 56%
15:00 +33°C° 0 mm 4 m/S 756 mmHg 58%
16:00 +32°C° 0 mm 4 m/S 756 mmHg 62%
17:00 +30°C° 0 mm 4 m/S 756 mmHg 66%
18:00 +29°C° 0 mm 3 m/S 756 mmHg 70%
19:00 +28°C° 0 mm 4 m/S 757 mmHg 72%
20:00 +28°C° 0 mm 4 m/S 757 mmHg 75%
21:00 +28°C° 0 mm 4 m/S 757 mmHg 77%
22:00 +27°C° 0 mm 4 m/S 757 mmHg 79%
23:00 +27°C° 0 mm 4 m/S 757 mmHg 80%

Morgen, 18 Juni, Freitag

Zeit Temperatur Niederschläge Wind Luftdruck Luftfeuchtigkeit
00:00 +27°C° 0 mm 4 m/S 757 mmHg 81%
01:00 +27°C° 0 mm 3 m/S 756 mmHg 82%
02:00 +26°C° 0 mm 3 m/S 756 mmHg 84%
03:00 +26°C° 0 mm 2 m/S 756 mmHg 85%
04:00 +26°C° 0 mm 2 m/S 756 mmHg 84%
05:00 +26°C° 0 mm 2 m/S 757 mmHg 84%
06:00 +26°C° 0 mm 2 m/S 757 mmHg 83%
07:00 +28°C° 0 mm 3 m/S 757 mmHg 77%
08:00 +29°C° 0 mm 3 m/S 758 mmHg 70%
09:00 +30°C° 0 mm 3 m/S 758 mmHg 64%
10:00 +30°C° 0 mm 3 m/S 758 mmHg 62%
11:00 +31°C° 0 mm 3 m/S 758 mmHg 60%
12:00 +31°C° 0 mm 3 m/S 757 mmHg 58%
13:00 +31°C° 0 mm 3 m/S 757 mmHg 58%
14:00 +31°C° 0 mm 3 m/S 756 mmHg 59%
15:00 +31°C° 0 mm 3 m/S 756 mmHg 59%
16:00 +30°C° 0 mm 3 m/S 756 mmHg 62%
17:00 +29°C° 0 mm 3 m/S 756 mmHg 66%
18:00 +29°C° 0 mm 3 m/S 756 mmHg 69%
19:00 +28°C° 0 mm 3 m/S 757 mmHg 72%
20:00 +28°C° 0 mm 3 m/S 757 mmHg 75%
21:00 +27°C° 0 mm 3 m/S 757 mmHg 79%
22:00 +27°C° 0 mm 3 m/S 757 mmHg 80%
23:00 +27°C° 0 mm 4 m/S 757 mmHg 81%

übermorgen, 19 Juni, Samstag

Zeit Temperatur Niederschläge Wind Luftdruck Luftfeuchtigkeit
00:00 +27°C° 0 mm 4 m/S 757 mmHg 82%
01:00 +26°C° 0 mm 3 m/S 756 mmHg 84%
02:00 +26°C° 0 mm 3 m/S 756 mmHg 85%
03:00 +26°C° 0 mm 3 m/S 756 mmHg 87%
04:00 +26°C° 0 mm 3 m/S 756 mmHg 87%
05:00 +26°C° 0 mm 3 m/S 756 mmHg 88%
06:00 +26°C° 0 mm 3 m/S 757 mmHg 88%
07:00 +27°C° 0.1 mm 3 m/S 757 mmHg 81%
08:00 +29°C° 0.1 mm 3 m/S 757 mmHg 74%
09:00 +30°C° 0.1 mm 3 m/S 758 mmHg 66%
10:00 +30°C° 0.2 mm 3 m/S 758 mmHg 65%
11:00 +31°C° 0.2 mm 3 m/S 757 mmHg 64%
12:00 +32°C° 0.2 mm 4 m/S 757 mmHg 63%
13:00 +32°C° 0.2 mm 4 m/S 757 mmHg 64%
14:00 +32°C° 0.2 mm 4 m/S 756 mmHg 64%
15:00 +32°C° 0.2 mm 4 m/S 756 mmHg 65%
16:00 +30°C° 0 mm 4 m/S 756 mmHg 68%
17:00 +29°C° 0 mm 4 m/S 756 mmHg 71%
18:00 +29°C° 0 mm 4 m/S 756 mmHg 74%
19:00 +28°C° 0.1 mm 4 m/S 757 mmHg 77%
20:00 +28°C° 0.1 mm 4 m/S 757 mmHg 80%
21:00 +27°C° 0.1 mm 4 m/S 757 mmHg 84%
22:00 +27°C° 0.2 mm 3 m/S 757 mmHg 85%
23:00 +27°C° 0.2 mm 3 m/S 757 mmHg 86%

20 Juni, Sonntag

Zeit Temperatur Niederschläge Wind Luftdruck Luftfeuchtigkeit
00:00 +26°C° 0.2 mm 3 m/S 757 mmHg 87%
01:00 +26°C° 0.6 mm 3 m/S 757 mmHg 89%
02:00 +26°C° 0.6 mm 3 m/S 757 mmHg 91%
03:00 +25°C° 0.6 mm 2 m/S 757 mmHg 93%
04:00 +25°C° 0.1 mm 2 m/S 757 mmHg 93%
05:00 +25°C° 0.1 mm 2 m/S 757 mmHg 93%
06:00 +25°C° 0.1 mm 2 m/S 757 mmHg 93%
07:00 +26°C° 0 mm 2 m/S 757 mmHg 86%
08:00 +28°C° 0 mm 2 m/S 758 mmHg 80%
09:00 +29°C° 0 mm 2 m/S 758 mmHg 74%
10:00 +29°C° 0.3 mm 3 m/S 758 mmHg 73%
11:00 +30°C° 0.3 mm 3 m/S 758 mmHg 72%
12:00 +30°C° 0.3 mm 3 m/S 757 mmHg 71%
13:00 +30°C° 0.2 mm 4 m/S 757 mmHg 70%
14:00 +30°C° 0.2 mm 4 m/S 756 mmHg 69%
15:00 +32°C° 0.2 mm 4 m/S 755 mmHg 68%
16:00 +30°C° 0.1 mm 4 m/S 756 mmHg 71%
17:00 +29°C° 0.1 mm 4 m/S 756 mmHg 74%
18:00 +28°C° 0.1 mm 4 m/S 756 mmHg 78%
19:00 +27°C° 0.4 mm 4 m/S 756 mmHg 81%
20:00 +27°C° 0.4 mm 3 m/S 757 mmHg 84%
21:00 +26°C° 0.4 mm 3 m/S 757 mmHg 86%
22:00 +26°C° 0.3 mm 3 m/S 757 mmHg 86%
23:00 +27°C° 0.3 mm 3 m/S 757 mmHg 86%

21 Juni, Montag

Zeit Temperatur Niederschläge Wind Luftdruck Luftfeuchtigkeit
00:00 +27°C° 0.3 mm 3 m/S 757 mmHg 86%
01:00 +26°C° 0.3 mm 3 m/S 757 mmHg 86%
02:00 +26°C° 0.3 mm 3 m/S 756 mmHg 87%
03:00 +26°C° 0.3 mm 3 m/S 756 mmHg 87%
04:00 +26°C° 0.9 mm 3 m/S 756 mmHg 89%
05:00 +26°C° 0.9 mm 2 m/S 757 mmHg 90%
06:00 +25°C° 0.9 mm 2 m/S 757 mmHg 91%
07:00 +26°C° 0.5 mm 2 m/S 757 mmHg 86%
08:00 +28°C° 0.5 mm 2 m/S 757 mmHg 80%
09:00 +29°C° 0.5 mm 2 m/S 758 mmHg 75%
10:00 +29°C° 0.6 mm 3 m/S 758 mmHg 75%
11:00 +29°C° 0.6 mm 3 m/S 757 mmHg 74%
12:00 +30°C° 0.6 mm 4 m/S 757 mmHg 74%
13:00 +29°C° 0.9 mm 4 m/S 757 mmHg 75%
14:00 +29°C° 0.9 mm 4 m/S 756 mmHg 75%
15:00 +29°C° 0.9 mm 4 m/S 756 mmHg 76%
16:00 +28°C° 0.8 mm 4 m/S 756 mmHg 79%
17:00 +27°C° 0.8 mm 4 m/S 756 mmHg 83%
18:00 +27°C° 0.8 mm 3 m/S 756 mmHg 86%
19:00 +26°C° 1.2 mm 3 m/S 756 mmHg 88%
20:00 +26°C° 1.2 mm 3 m/S 757 mmHg 91%
21:00 +26°C° 1.2 mm 3 m/S 757 mmHg 93%
22:00 +25°C° 2.8 mm 2 m/S 757 mmHg 94%
23:00 +25°C° 2.8 mm 2 m/S 757 mmHg 94%

22 Juni, Dienstag

Zeit Temperatur Niederschläge Wind Luftdruck Luftfeuchtigkeit
00:00 +25°C° 2.8 mm 1 m/S 757 mmHg 95%
01:00 +25°C° 0.8 mm 2 m/S 756 mmHg 95%
02:00 +25°C° 0.8 mm 2 m/S 756 mmHg 95%
03:00 +25°C° 0.8 mm 2 m/S 755 mmHg 95%
04:00 +25°C° 3.7 mm 2 m/S 756 mmHg 96%
05:00 +25°C° 3.7 mm 2 m/S 756 mmHg 97%
06:00 +25°C° 3.7 mm 3 m/S 756 mmHg 98%
07:00 +25°C° 4.8 mm 2 m/S 756 mmHg 97%
08:00 +25°C° 4.8 mm 2 m/S 757 mmHg 97%
09:00 +25°C° 4.8 mm 2 m/S 757 mmHg 97%
10:00 +25°C° 0.4 mm 1 m/S 757 mmHg 95%
11:00 +25°C° 0.4 mm 1 m/S 757 mmHg 94%
12:00 +26°C° 0.4 mm 1 m/S 757 mmHg 92%
13:00 +26°C° 0.1 mm 1 m/S 757 mmHg 89%
14:00 +27°C° 0.1 mm 1 m/S 756 mmHg 86%
15:00 +27°C° 0.1 mm 1 m/S 756 mmHg 83%
16:00 +27°C° 0 mm 1 m/S 756 mmHg 84%
17:00 +27°C° 0 mm 1 m/S 756 mmHg 86%
18:00 +26°C° 0 mm 2 m/S 756 mmHg 87%
19:00 +26°C° 0 mm 2 m/S 756 mmHg 88%
20:00 +26°C° 0 mm 2 m/S 756 mmHg 88%
21:00 +26°C° 0 mm 2 m/S 756 mmHg 89%
22:00 +26°C° 0 mm 2 m/S 756 mmHg 90%
23:00 +26°C° 0 mm 2 m/S 756 mmHg 90%
Mehr zeigen

Wir brauchen deine Erlaubnis

Meteoprog und unser Service Anbieter werden persönliche Daten aufbewahren, so wie Cookies, Geräte Bezeichnung oder ähnliche Technologien von deinem Gerät und Prozess, so wie Persönliche Daten Inhalte und Werbungen, genauso wie social Media und den Verkehr zu analysieren.

  • Aufbewahrung und/oder Zugang zu deiner Geräte Informationen.

    Cookies, Geräte Bezeichnung oder andere Informationen, können aufbewahrt oder Zugang zu deinem Gerät erhalten, für den Grund, der oben angegeben wird.

  • Personalisierte Werbung und Inhalte, Messungen, Einblick in das Publikum und Produkt Entwicklung.

    Werbungen und Inhalte können personalisiert werden, basierend auf ein Profil. Mehr Daten können besser personalisierte Werbungen und Inhalte hinzufügen. Werbung und Inhalte können gezeigt und gemessen werden. Einblicke über das Publikum, welche die Werbung gesehen haben und den Inhalt, können abgeleitet werden. So wie Daten können genutzt werden, um es zu verbessern oder die Benutzer Erfahrung zu verbessern das System und die Software.

Wenn du “Ich stimme zu” klickst, erlaubst du uns, die Cookies zu benutzen die Geräte Bezeichnung, den Web oder ähnliche Technologien zu benutzen. Deine Settings, können in deinem Gerät bei deinem Browser geändert werden.

Für den bestimmten Zweck, berechtigten Interessen beruhen darauf, mehr als auf den Inhalt. Du kannst mehr darüber in unseren Privaten und Cookie Politik lesen.